Weather Roundup
Issued by NWS Springfield, MO

Home | Current Version | Previous Version | Text Only | Print | Product List | Glossary On
Versions: 1 2 3 4 5 6 7 8 9 10 11 12 13 14 15 16 17 18 19 20 21 22 23 24 25 26 27 28 29 30 31 32 33 34 35 36 37 38 39 40 41 42 43 44 45 46 47 48 49 50
000
NZUS99 KSGF 231507
HRRSGF

HOURLY WEATHER
NATIONAL WEATHER SERVICE SPRINGFIELD MO
1000 AM CDT SUN JUL 23 2017

......SGF CWA......

CITY           SKY/WX    TMP DP  RH WIND       PRES   REMARKS
SPRINGFIELD    PTSUNNY   81  67  62 CALM      29.97F
JOPLIN         CLOUDY    76  73  91 CALM      29.95F
WEST PLAINS    MOSUNNY   84  65  52 VRB5      29.97S
ROLLA          CLOUDY    75  69  81 SW8       29.96S
OSAGE BEACH    PTSUNNY   79  67  66 SW3       29.95F
BRANSON        PTSUNNY   84  68  58 SE6       29.98F

......SURROUNDING SGF CWA......

CITY           SKY/WX    TMP DP  RH WIND       PRES   REMARKS
CHANUTE        CLOUDY    73  70  90 VRB5      29.96R
PARSONS        CLOUDY    74  70  87 CALM      29.97R
COFFEYVILLE    CLOUDY    76  69  79 NE5       29.95R
EMPORIA        MOSUNNY   79  68  69 N10       29.96S
GROVE OK       MOSUNNY   82  72  69 E8        29.93F
ROGERS AR      MOSUNNY   83  71  67 NE7       29.98F
SILOAM SPRINGS SUNNY     84  72  65 E6        29.96F
HARRISON AR    SUNNY     83  71  67 MISG      29.98S
NEAR YELLVILLE MOSUNNY   84  70  61 SE5       29.93R

......KANSAS AND MISSOURI......

CITY           SKY/WX    TMP DP  RH WIND       PRES   REMARKS
KANSAS CTY INT MOSUNNY   81  71  71 NW7       29.94S
DOWNTOWN KC    MOSUNNY   81  71  71 SW6       29.92S
COLUMBIA       CLOUDY    75  69  81 W10       29.95R
SEDALIA        PTSUNNY   80  72  76 W6        29.94F
ST JOSEPH      SUNNY     83  73  72 NW8       29.94S
ST LOUIS       CLOUDY    79  67  66 SW10      29.92R
SPIRIT OF STL  CLOUDY    75  70  84 SW8       29.92R
KIRKSVILLE     SUNNY     83  74  74 NW7       29.92S
WICHITA        MOSUNNY   79  72  79 N8        29.97S
TOPEKA         SUNNY     79  73  82 W7        29.94S
OLATHE         PTSUNNY   77  69  76 W9        29.94F

......TENNESSEE......

CITY           SKY/WX    TMP DP  RH WIND       PRES   REMARKS
MEMPHIS        MOSUNNY   86  77  74 SW9       29.93F HX  97
NASHVILLE      CLOUDY    88  74  63 W6        29.94F HX  96

......ARKANSAS.......

CITY           SKY/WX    TMP DP  RH WIND       PRES   REMARKS
FAYETTEVILLE   SUNNY     85  76  74 E3        29.96F HX  94
FT SMITH       SUNNY     88  75  65 SE6       29.91F HX  97
LITTLE ROCK    MOSUNNY   85  77  77 SW5       29.93S HX  95

......OKLAHOMA.......

CITY           SKY/WX    TMP DP  RH WIND       PRES   REMARKS
TULSA          PTSUNNY   83  67  58 E6        29.91F
PONCA CITY     CLOUDY    83  65  54 SE8       29.94S
MCALESTER      SUNNY     86  75  69 CALM      29.92F HX  95
OKLAHOMA CITY  MOSUNNY   87  70  56 E10       29.93F HX  92

......IOWA............

CITY           SKY/WX    TMP DP  RH WIND       PRES   REMARKS
DES MOINES     MOSUNNY   83  70  64 NW12      29.90F
QUAD CITIES    SUNNY     83  73  72 W9        29.84F

......ILLINOIS........

CITY           SKY/WX    TMP DP  RH WIND       PRES   REMARKS
QUINCY         SUNNY     85  71  63 NW10      29.88R HX  90
CHICAGO        MOSUNNY   82  70  66 VRB3      29.80S



USA.gov is the U.S. government's official web portal to all federal, state and local government web resources and services.